Iridium Next SV151

operational
NORAD ID: 43074 Int'l Des: 2017-083 Owner: IRIDS Country: US Constellation: Iridium NEXT
LEOCIRCULARPOLAR

About Iridium Next SV151

Description loading...

Live Position

Loading 3D Globe...

Upcoming Passes

Altitude History

Altitude vs Time

uPlot chart will show altitude changes over time

Two-Line Element Set

1 43074U 17083E 26063.36559153 .00000107 00000-0 31052-4 0 9994
2 43074 86.4014 5.8588 0002129 86.2489 273.8951 14.34218443429114
Epoch: Mar 4, 2026 • Age: 23 hours

Current Status

Altitude 806.0 km
Velocity 7.45 km/s
Sub-Earth Point -72.56°S, 44.19°E
Launch Date Dec 23, 2017
Age 8.1 years
Type communications

Technical Details

Classification Payload
Mass 860.00 kg
Dry Mass 700.00 kg
Total Mass 860.00 kg
Length 3.10 m
Diameter 1.50 m
Span 9.40 m
Shape Half Hex Prism+2 pan
Manufacturer OATKGA
Bus Type EliteBus
Phase Status In Orbit
Owner/State IRIDS/US

Large Constellations

Loading constellations...